Home > Time Zones > World Clock > Weather > Egypt > Cairo > Past weeks

Flag for Egypt Weather past 2 weeks in Cairo, Egypt

Now
75 °F

Clear.


Feels Like: 75 °F
Forecast: 73 / 94 °F
Wind: No wind

Location: Cairo Airport

Current Time: Sep 4, 2015 at 8:20:40 AM

Latest Report: Sep 4, 2015 at 5:00 AM


Visibility: 10 mi

Pressure: 29.86 "Hg

Humidity: 83%

Dew point: 70 °F

Location of CairoLocation

Historic Weather in Cairo — Graph

°F

Cairo temperature yesterday

Maximum temperature yesterday: 97 °F (at 2:00 PM)
Minimum temperature yesterday: 75 °F (at 5:00 AM)
Average temperature yesterday: 85 °F

Past Weeks' High & Low Weather Summary

 TemperatureHumidityPressure
High99 °F (Aug 20, 2:00 PM)100% (Aug 30, 8:00 AM)29.92 "Hg (Aug 30, 8:00 AM)
Low43 °F (Aug 30, 8:00 AM)20% (Aug 31, 3:00 PM)29.74 "Hg (Aug 22, 3:00 PM)
Average85 °F56%29.85 "Hg
* Reported Aug 20 5:00 AM — Sep 4 5:00 AM, Cairo, Weather by CustomWeather, © 2015

Note: Actual official high and low records may vary slightly from our data, if they occured in-between our weather recording intervals... More about our weather records

Advertising

Cairo weather history for previous 24 hours

 ConditionsComfort  
Time TempWeatherWind HumidityBarometerVisibility
5:00 AM
Fri, Sep 4
75 °FClear.No wind22%29.86 "Hg10 mi
4:00 AM75 °FClear.No wind78%29.86 "Hg10 mi
3:00 AM75 °FClear.No wind74%29.86 "Hg10 mi
2:00 AM81 °FClear.6 mph66%29.89 "Hg10 mi
1:00 AM81 °FClear.6 mph58%29.86 "Hg10 mi
12:00 AM82 °FClear.6 mph62%29.89 "Hg10 mi
11:00 PM
Thu, Sep 3
81 °FClear.6 mph51%29.89 "Hg10 mi
10:30 PM81 °FClear.6 mph51%29.92 "Hg10 mi
10:00 PM82 °FClear.7 mph48%29.92 "Hg10 mi
9:30 PM84 °FClear.7 mph43%29.92 "Hg10 mi
9:00 PM84 °FClear.7 mph40%29.92 "Hg10 mi
8:30 PM86 °FClear.7 mph33%29.92 "Hg10 mi
8:00 PM88 °FClear.14 mph33%29.89 "Hg10 mi
7:30 PM88 °FClear.9 mph25%29.89 "Hg10 mi
7:00 PM88 °FClear.10 mph27%29.86 "Hg10 mi
6:30 PM90 °FClear.10 mph27%29.86 "Hg10 mi
6:00 PM91 °FSunny.18 mph28%29.86 "Hg10 mi
5:30 PM91 °FSunny.12 mph26%29.86 "Hg10 mi
5:00 PM95 °FSunny.15 mph26%29.86 "Hg10 mi
4:30 PM93 °FSunny.10 mph26%29.83 "Hg10 mi
4:00 PM95 °FSunny.12 mph23%29.83 "Hg10 mi
3:30 PM95 °FSunny.12 mph26%29.83 "Hg10 mi
3:00 PM97 °FSunny.18 mph30%29.86 "Hg10 mi
2:30 PM97 °FSunny.13 mph34%29.86 "Hg10 mi
2:00 PM97 °FSunny.15 mph32%29.86 "Hg10 mi
1:30 PM93 °FSunny.9 mph30%29.86 "Hg10 mi
1:00 PM95 °FSunny.9 mph26%29.86 "Hg10 mi
12:30 PM93 °FSunny.9 mph30%29.86 "Hg10 mi
12:00 PM93 °FSunny.12 mph26%29.89 "Hg10 mi
11:30 AM91 °FSunny.8 mph34%29.89 "Hg10 mi
11:00 AM91 °FSunny.8 mph34%29.89 "Hg10 mi
10:30 AM86 °FSunny.2 mph49%29.89 "Hg10 mi
10:00 AM86 °FSunny.2 mph49%29.89 "Hg10 mi
9:30 AM86 °FScattered clouds.6 mph55%29.89 "HgN/A
9:00 AM82 °FScattered clouds.6 mph62%29.89 "HgN/A
8:30 AM79 °FFog.3 mph84%29.92 "Hg2 mi
8:00 AM79 °FFog.3 mph84%29.92 "Hg2 mi
Weather by CustomWeather, © 2015

See weather overviewHow to use our weather pages